#datint,netname,site,siteID,timestamp,IntT,BattV,AirT2,AirT,AirT_Avg,AirT_Max,AirT_Min,RH_Avg,RH_Max,RH_Min,EA_Avg,Td_Avg,Td_Max,Td_Min,WindS_Smp,WindS_Avg,WindD_Avg,WindD_SD,WindS_Max,ETo,ETr,SoilT4,SoilT8,SoilVWC8,SolarW_Avg,wetstate_Avg,wetT_Avg,Precip_accum,Precip_WPG,Precip_TB
15min,AgWx,beryljct,423,14MAY2019:00:00:00,48.0,12.98,46.1,47.2,46.1,49.3,42.9,73,84,64,0.757,37.9,38.7,37.1,2.389,2.2,207,8.5,3.0,0.00004,0.00006,57.9,57.2,17,0,0,38.5,15.15,0.00,0.00
15min,AgWx,beryljct,423,14MAY2019:00:15:00,47.8,12.98,46.4,45.9,47.3,50.9,45.6,69,75,58,0.760,37.5,38.3,36.4,2.872,2.2,205,13,2.9,0.00005,0.00009,57.7,57.2,17,0,0,41.0,15.15,0.00,0.00
15min,AgWx,beryljct,423,14MAY2019:00:30:00,47.5,12.97,47.6,46.4,46.2,48.0,45.3,72,76,66,0.811,37.8,39.2,37.2,2.74,2.9,200,24,4.1,0.00007,0.00011,57.6,57.1,16,0,0,39.5,15.15,0.00,0.00
15min,AgWx,beryljct,423,14MAY2019:00:45:00,47.2,12.95,44.3,45.4,46.7,48.6,45.2,73,78,66,0.791,38.4,39.2,37.6,3.551,3.1,170,11,4.4,0.00007,0.00011,57.4,57.1,17,0,0,39.6,15.15,0.00,0.00
15min,AgWx,beryljct,423,14MAY2019:01:00:00,46.7,12.94,44.1,44.7,44.0,45.5,42.4,80,85,75,0.781,38.2,39.0,37.4,2.938,2.8,179,15,4.0,0.00003,0.00005,57.2,57.1,17,0,0,37.2,15.15,0.00,0.00
15min,AgWx,beryljct,423,14MAY2019:01:15:00,46.1,12.94,42.4,42.6,43.3,44.6,42.2,82,85,78,0.783,38.2,38.5,37.9,2.499,2.5,178,10,4.1,0.00001,0.00003,57.0,57.1,16,0,0,36.4,15.15,0.00,0.00
15min,AgWx,beryljct,423,14MAY2019:01:30:00,45.6,12.93,45.0,44.7,43.5,44.9,42.5,81,85,76,0.776,38.1,38.5,37.6,2.346,3.2,178,5.6,4.0,0.00003,0.00005,56.8,57.0,16,0,0,36.4,15.15,0.00,0.00
15min,AgWx,beryljct,423,14MAY2019:01:45:00,45.2,12.93,45.3,44.7,44.0,44.9,43.3,80,82,77,0.790,38.3,38.6,37.8,1.491,2.3,186,5.3,3.7,0.00002,0.00003,56.6,57.0,17,0,0,37.0,15.15,0.00,0.00
15min,AgWx,beryljct,423,14MAY2019:02:00:00,45.0,12.92,43.7,44.4,45.1,46.7,44.3,76,79,71,0.776,38.1,38.6,37.3,1.425,1.6,154,17,3.8,-0.00000,0.00001,56.5,57.0,16,0,0,37.0,15.15,0.00,0.00
15min,AgWx,beryljct,423,14MAY2019:02:15:00,44.8,12.91,42.9,42.5,42.9,44.3,41.6,82,85,78,0.764,37.7,38.4,37.0,2.083,2.6,152,15,4.5,0.00001,0.00003,56.3,56.9,17,0,0,35.7,15.15,0.00,0.00
15min,AgWx,beryljct,423,14MAY2019:02:30:00,44.2,12.9,40.0,40.6,41.5,42.7,40.6,84,87,81,0.745,37.1,37.7,36.7,4.582,3.4,150,9.7,5.2,0.00002,0.00004,56.1,56.9,16,0,0,35.6,15.15,0.00,0.00
15min,AgWx,beryljct,423,14MAY2019:02:45:00,43.6,12.89,40.6,41.2,40.9,41.6,40.3,87,88,84,0.742,37.2,37.6,36.9,4.867,3.0,160,8.3,4.9,0.00000,0.00001,55.9,56.8,17,0,0,36.6,15.15,0.00,0.00
15min,AgWx,beryljct,423,14MAY2019:03:00:00,43.2,12.88,40.3,40.5,41.1,41.6,40.5,86,88,85,0.750,37.2,37.7,36.8,3.398,2.7,184,13,4.4,0.00000,0.00001,55.7,56.8,17,0,0,37.2,15.15,0.00,0.00
15min,AgWx,beryljct,423,14MAY2019:03:15:00,42.9,12.88,40.5,40.9,41.1,41.7,40.3,86,88,84,0.741,37.2,37.5,36.8,0.636,1.4,141,30,3.6,-0.00003,-0.00004,55.6,56.8,17,0,0,37.2,15.15,0.00,0.00
15min,AgWx,beryljct,423,14MAY2019:03:30:00,42.5,12.79,42.2,40.7,40.4,41.0,40.1,87,89,85,0.751,37.0,37.5,36.3,0.241,0.1,86,0.0,0.7,-0.00008,-0.00013,55.4,56.7,17,0,0,36.5,15.15,0.00,0.00
15min,AgWx,beryljct,423,14MAY2019:03:45:00,42.3,12.87,41.4,42.3,41.8,42.5,40.8,84,87,81,0.744,37.2,37.6,36.8,0.833,0.3,86,0.0,1.1,-0.00007,-0.00011,55.2,56.6,16,0,0,37.1,15.16,0.00,0.00
15min,AgWx,beryljct,423,14MAY2019:04:00:00,42.0,12.79,40.5,40.7,40.4,42.1,39.3,86,90,81,0.730,36.5,37.4,36.0,0,0.2,148,33,1.3,-0.00008,-0.00012,55.1,56.6,16,0,0,36.1,15.15,0.00,0.00
15min,AgWx,beryljct,423,14MAY2019:04:15:00,41.8,12.85,43.2,42.7,42.0,43.4,40.6,82,86,78,0.752,36.9,37.3,36.2,1.096,0.7,195,5.8,1.4,-0.00005,-0.00008,54.9,56.5,16,0,0,36.8,15.15,0.00,0.00
15min,AgWx,beryljct,423,14MAY2019:04:30:00,41.5,12.76,40.1,39.7,39.9,42.8,38.7,87,91,80,0.749,36.4,37.2,35.6,2.959,1.6,188,9.6,3.6,-0.00003,-0.00003,54.7,56.4,16,0,0,36.3,15.15,0.00,0.00
15min,AgWx,beryljct,423,14MAY2019:04:45:00,41.3,12.84,42.6,41.6,40.1,41.6,39.3,88,90,86,0.765,36.9,37.7,36.4,0.197,2.2,198,3.4,3.4,-0.00002,-0.00002,54.6,56.4,16,0,0,35.8,15.15,0.00,0.00
15min,AgWx,beryljct,423,14MAY2019:05:00:00,40.9,12.82,38.3,37.9,38.5,41.6,37.8,89,92,83,0.709,35.5,37.6,34.7,3.793,3.8,139,9.1,4.8,0.00001,0.00001,54.4,56.3,17,0,0,35.2,15.16,0.00,0.00
15min,AgWx,beryljct,423,14MAY2019:05:15:00,40.4,12.83,38.3,37.9,37.7,38.1,37.0,92,93,91,0.710,35.6,36.0,34.6,3.201,3.1,150,71,7.4,-0.00002,-0.00002,54.3,56.3,17,0,0,35.4,15.15,0.00,0.00
15min,AgWx,beryljct,423,14MAY2019:05:30:00,39.9,12.81,38.6,38.4,38.2,38.7,37.6,91,92,90,0.706,35.7,36.3,35.2,3.771,1.3,111,31,3.8,-0.00004,-0.00006,54.1,56.2,16,0,0,36.6,15.15,0.00,0.00
15min,AgWx,beryljct,423,14MAY2019:05:45:00,39.7,12.82,37.3,37.4,38.0,39.0,37.4,91,92,88,0.696,35.5,36.3,35.1,3.157,3.9,152,6.5,5.0,0.00007,0.00012,54.0,56.1,16,0,0,36.1,15.15,0.00,0.00
15min,AgWx,beryljct,423,14MAY2019:06:00:00,39.4,12.71,36.8,37.1,37.3,37.7,37.0,93,94,92,0.690,35.4,35.9,35.0,2.74,2.2,163,5.7,3.3,0.00004,0.00006,53.8,56.1,16,0,0,35.8,15.15,0.00,0.00
15min,AgWx,beryljct,423,14MAY2019:06:15:00,39.1,12.8,39.1,39.0,37.7,39.0,36.7,92,94,89,0.721,35.6,36.5,34.9,0.702,2.2,178,3.6,3.3,0.00004,0.00006,53.7,56.0,17,0,0,36.3,15.15,0.00,0.00
15min,AgWx,beryljct,423,14MAY2019:06:30:00,39.0,12.74,37.8,37.8,38.3,38.9,37.8,90,92,89,0.704,35.7,36.0,35.2,0,0.3,179,0.1,0.9,0.00004,0.00005,53.5,55.9,16,6,0,37.0,15.15,0.00,0.00
15min,AgWx,beryljct,423,14MAY2019:06:45:00,39.0,12.83,38.9,38.4,37.6,38.6,36.7,92,93,89,0.721,35.4,36.5,34.2,0.636,0.4,297,27,2.1,0.00014,0.00015,53.4,55.8,16,26,0,37.2,15.15,0.00,0.00
15min,AgWx,beryljct,423,14MAY2019:07:00:00,39.3,12.86,40.0,39.3,38.7,39.3,38.2,90,91,89,0.741,36.1,36.9,35.5,0,0.7,306,0.1,1.5,0.00032,0.00036,53.3,55.8,16,73,0,43.6,15.15,0.00,0.00
15min,AgWx,beryljct,423,14MAY2019:07:15:00,40.8,12.85,45.3,44.4,41.2,44.4,39.3,89,91,84,0.836,38.2,40.0,36.9,2.916,1.6,319,15,3.7,0.00049,0.00055,53.1,55.7,17,113,0,53.0,15.15,0.00,0.00
15min,AgWx,beryljct,423,14MAY2019:07:30:00,43.2,12.84,47.6,47.2,46.2,47.2,44.5,79,84,78,0.868,40.3,40.9,39.6,3.639,4.0,348,3.9,4.7,0.00073,0.00089,53.0,55.6,16,135,0,54.2,15.15,0.00,0.00
15min,AgWx,beryljct,423,14MAY2019:07:45:00,45.4,12.89,49.1,48.6,48.2,48.7,47.2,77,79,75,0.882,41.3,41.8,40.8,3.902,3.8,355,8.8,5.2,0.00092,0.00111,52.9,55.6,16,168,0,57.6,15.15,0.00,0.00
15min,AgWx,beryljct,423,14MAY2019:08:00:00,47.9,12.94,51.0,50.9,49.8,50.9,48.7,73,76,68,0.867,41.7,42.4,40.9,5.634,4.2,357,5.8,5.6,0.00129,0.00154,52.8,55.5,16,245,0,63.6,15.15,0.00,0.00
15min,AgWx,beryljct,423,14MAY2019:08:15:00,50.3,12.91,52.2,51.8,51.4,51.8,50.9,68,69,67,0.899,41.1,41.8,40.6,5.305,5.0,358,6.7,6.1,0.00152,0.00186,52.7,55.4,16,267,0,66.5,15.15,0.00,0.00
15min,AgWx,beryljct,423,14MAY2019:08:30:00,52.3,12.97,52.8,52.8,52.5,52.8,51.8,66,69,65,0.908,41.5,42.2,40.9,4.845,5.1,359,12,6.6,0.00171,0.00209,52.6,55.4,16,294,0,68.1,15.14,0.00,0.00
15min,AgWx,beryljct,423,14MAY2019:08:45:00,54.1,13.04,54.5,54.5,53.7,54.5,52.7,65,67,61,0.919,42.1,42.7,41.2,3.42,4.7,9.3,9.4,6.4,0.00210,0.00251,52.5,55.3,16,373,0,74.5,15.14,0.00,0.00
15min,AgWx,beryljct,423,14MAY2019:09:00:00,56.1,13.21,55.7,55.9,55.2,56.0,54.5,60,65,58,0.909,41.8,43.8,40.9,4.362,3.8,4.4,12,5.2,0.00244,0.00285,52.4,55.2,16,427,0,80.3,15.14,0.00,0.00
15min,AgWx,beryljct,423,14MAY2019:09:15:00,58.6,13.51,57.7,57.6,57.2,58.1,55.9,60,63,55,0.891,43.4,44.8,41.6,2.872,3.4,20,14,5.5,0.00294,0.00338,52.4,55.2,16,513,0,88.6,15.14,0.00,0.00
15min,AgWx,beryljct,423,14MAY2019:09:30:00,60.7,13.8,59.0,59.2,58.6,59.5,57.7,54,58,51,0.867,42.0,43.5,40.9,0.745,2.8,4.3,14,4.7,0.00317,0.00362,52.3,55.1,16,533,0,90.2,15.13,0.00,0.00
15min,AgWx,beryljct,423,14MAY2019:09:45:00,63.1,13.88,61.5,61.3,60.3,61.6,59.3,51,54,48,0.917,42.0,43.4,40.6,3.025,2.3,355,19,3.8,0.00353,0.00399,52.3,55.0,16,582,0,97.6,15.13,0.00,0.00
15min,AgWx,beryljct,423,14MAY2019:10:00:00,65.4,14.21,62.2,62.9,62.1,63.5,61.3,49,54,43,0.901,42.6,45.9,39.2,1.798,2.0,14,20,4.4,0.00383,0.00430,52.3,55.0,16,628,0,100.5,15.12,0.00,0.00
15min,AgWx,beryljct,423,14MAY2019:10:15:00,67.4,14.12,63.3,64.2,63.4,64.3,62.5,48,54,44,0.915,43.4,46.7,41.4,3.508,3.1,16,23,5.0,0.00392,0.00449,52.4,54.9,16,612,0,99.3,15.12,0.00,0.00
15min,AgWx,beryljct,423,14MAY2019:10:30:00,69.2,14.1,64.9,65.7,64.9,65.9,64.0,47,55,42,1.116,44.3,49.1,41.1,2.762,2.6,27,25,3.9,0.00451,0.00509,52.4,54.8,16,709,0,104.0,15.12,0.00,0.00
15min,AgWx,beryljct,423,14MAY2019:10:45:00,71.1,14.08,65.8,66.3,65.9,66.6,65.5,46,52,43,1.020,44.7,48.0,42.3,1.008,1.4,70,17,2.7,0.00415,0.00459,52.5,54.8,16,635,0,110.3,15.11,0.00,0.00
15min,AgWx,beryljct,423,14MAY2019:11:00:00,72.2,14.1,70.0,68.3,66.8,68.4,65.9,50,53,46,1.232,47.4,50.1,45.1,0.088,2.1,125,21,4.5,0.00458,0.00511,52.6,54.8,16,701,0,111.8,15.11,0.00,0.00
15min,AgWx,beryljct,423,14MAY2019:11:15:00,73.8,14.08,68.7,69.2,68.4,69.2,67.8,47,55,39,1.251,47.7,52.0,42.2,4.099,2.0,120,31,4.3,0.00543,0.00601,52.7,54.7,16,831,66,139.0,15.11,0.00,0.00
15min,AgWx,beryljct,423,14MAY2019:11:30:00,75.1,14.07,69.7,69.8,69.3,70.1,68.7,50,58,44,1.085,50.1,53.8,46.3,5.042,3.4,86,21,6.2,0.00577,0.00650,52.8,54.7,16,874,100,147.7,15.10,0.00,0.00
15min,AgWx,beryljct,423,14MAY2019:11:45:00,76.2,14.01,72.4,72.5,71.2,72.8,69.7,40,46,33,0.922,45.3,50.0,41.7,8.57,3.2,274,90,10.6,0.00614,0.00696,53.0,54.6,16,906,98,153.1,15.11,0.00,0.00
15min,AgWx,beryljct,423,14MAY2019:12:00:00,76.6,13.98,72.6,72.6,72.4,73.0,71.8,34,40,30,0.896,42.5,46.4,39.2,7.936,8.2,200,19,13.1,0.00675,0.00826,53.1,54.6,16,944,0,116.8,15.10,0.00,0.00
15min,AgWx,beryljct,423,14MAY2019:12:15:00,76.7,13.61,73.9,73.3,72.7,73.4,72.1,34,38,29,0.938,43.0,45.8,38.0,6.73,8.1,194,25,12.7,0.00681,0.00831,53.4,54.6,16,951,0,106.2,15.10,0.00,0.00
15min,AgWx,beryljct,423,14MAY2019:12:30:00,76.3,13.63,71.2,71.3,71.8,73.5,70.8,35,40,30,0.869,42.6,45.6,38.9,9.03,8.5,171,20,14.5,0.00595,0.00741,53.6,54.6,16,797,0,97.0,15.10,0.00,0.00
15min,AgWx,beryljct,423,14MAY2019:12:45:00,75.5,13.59,69.9,70.2,70.5,71.4,69.1,36,41,31,0.805,42.3,46.0,39.0,14.16,9.4,168,22,14.2,0.00460,0.00601,53.9,54.6,16,532,0,88.3,15.10,0.00,0.00
15min,AgWx,beryljct,423,14MAY2019:13:00:00,74.1,13.69,71.1,70.5,69.6,70.9,68.4,34,40,31,0.843,40.4,44.4,38.5,11,8.4,186,14,14.7,0.00355,0.00483,54.1,54.6,16,357,0,79.6,15.10,0.00,0.00
15min,AgWx,beryljct,423,14MAY2019:13:15:00,73.9,13.69,72.5,72.3,71.8,73.3,70.5,33,39,30,0.862,41.1,44.4,38.0,8.79,11.2,170,13,18.2,0.00671,0.00851,54.4,54.6,16,915,0,94.4,15.11,0.00,0.00
15min,AgWx,beryljct,423,14MAY2019:13:30:00,74.9,13.6,73.4,73.0,72.8,73.8,71.4,32,38,28,0.883,41.3,45.5,38.7,11.31,11.4,177,14,18.6,0.00718,0.00907,54.7,54.6,16,983,0,99.2,15.10,0.00,0.00
15min,AgWx,beryljct,423,14MAY2019:13:45:00,75.4,13.61,72.8,72.3,71.8,73.3,69.0,36,40,31,0.891,43.1,47.3,39.6,8.15,8.5,203,14,15.5,0.00578,0.00722,55.0,54.6,16,770,0,95.8,15.10,0.00,0.00
15min,AgWx,beryljct,423,14MAY2019:14:00:00,75.7,13.6,72.2,72.5,72.9,73.5,72.4,33,36,30,0.816,42.2,44.3,39.0,12.58,11.9,184,14,17.4,0.00694,0.00884,55.2,54.7,16,941,0,97.0,15.11,0.00,0.00
15min,AgWx,beryljct,423,14MAY2019:14:15:00,75.4,13.6,72.8,73.5,72.0,73.7,71.2,34,40,30,0.935,41.8,46.2,38.5,12.8,10.6,189,19,16.1,0.00581,0.00749,55.5,54.7,16,742,0,91.5,15.11,0.00,0.00
15min,AgWx,beryljct,423,14MAY2019:14:30:00,75.8,13.59,73.4,73.6,72.9,74.1,71.7,33,37,29,0.862,41.9,45.8,38.9,15.45,11.6,199,15,18.0,0.00689,0.00876,55.8,54.8,16,933,0,98.2,15.10,0.00,0.00
15min,AgWx,beryljct,423,14MAY2019:14:45:00,76.1,13.56,72.1,72.4,73.0,73.6,72.4,33,38,27,0.899,41.9,45.8,37.3,6.599,12.0,196,19,19.1,0.00735,0.00932,56.1,54.9,16,1006,0,97.8,15.10,0.00,0.00
15min,AgWx,beryljct,423,14MAY2019:15:00:00,76.3,13.56,73.8,74.0,72.7,74.2,70.6,33,38,29,0.934,42.2,46.4,39.6,5.502,8.4,180,16,17.0,0.00601,0.00750,56.5,55.0,16,820,0,95.8,15.10,0.00,0.00
15min,AgWx,beryljct,423,14MAY2019:15:15:00,77.1,13.54,72.5,72.4,73.7,74.4,72.4,32,39,26,0.913,42.0,46.7,36.3,9.43,11.4,198,23,20.6,0.00743,0.00936,56.9,55.0,16,1011,0,100.4,15.11,0.00,0.00
15min,AgWx,beryljct,423,14MAY2019:15:30:00,76.7,13.57,68.9,70.4,72.3,73.2,70.4,32,38,28,0.843,40.6,45.3,37.7,9.27,11.9,198,16,16.6,0.00476,0.00656,57.3,55.1,16,506,0,85.3,15.11,0.00,0.00
15min,AgWx,beryljct,423,14MAY2019:15:45:00,76.2,13.57,72.7,72.7,72.3,73.8,70.1,33,38,29,0.919,41.7,45.6,38.9,20.67,13.2,209,15,21.0,0.00668,0.00866,57.6,55.2,16,903,0,91.1,15.11,0.00,0.00
15min,AgWx,beryljct,423,14MAY2019:16:00:00,76.1,13.56,72.7,73.2,72.3,73.2,71.4,32,36,29,0.912,41.1,44.0,39.0,18.15,15.6,213,11,22.7,0.00648,0.00868,58.0,55.3,16,831,0,89.0,15.11,0.00,0.00
15min,AgWx,beryljct,423,14MAY2019:16:15:00,76.4,13.59,71.6,72.1,72.8,73.2,72.1,32,36,28,0.886,41.2,44.3,38.2,8.09,12.7,213,13,19.5,0.00619,0.00816,58.4,55.4,16,787,0,90.0,15.11,0.00,0.00
15min,AgWx,beryljct,423,14MAY2019:16:30:00,76.3,13.52,72.0,72.2,72.2,73.5,71.2,31,35,26,0.819,39.9,42.9,36.7,8.77,12.6,214,12,20.0,0.00506,0.00695,58.7,55.5,16,610,0,84.1,15.11,0.00,0.00
15min,AgWx,beryljct,423,14MAY2019:16:45:00,76.0,13.56,72.1,72.3,72.3,72.9,71.5,30,33,26,0.726,38.7,41.7,35.6,16.57,12.8,208,16,19.9,0.00485,0.00678,59.0,55.7,16,559,0,83.5,15.11,0.00,0.00
15min,AgWx,beryljct,423,14MAY2019:17:00:00,76.1,13.6,72.9,73.3,72.8,73.3,72.2,29,34,25,0.808,39.1,42.2,34.7,11.75,14.1,212,17,20.3,0.00610,0.00825,59.3,55.8,16,755,0,86.8,15.11,0.00,0.00
15min,AgWx,beryljct,423,14MAY2019:17:15:00,76.9,13.51,72.6,73.2,73.6,74.0,72.7,28,34,25,0.800,38.3,42.9,36.1,16.92,13.7,199,13,21.6,0.00585,0.00800,59.6,55.9,16,694,0,86.5,15.11,0.00,0.00
15min,AgWx,beryljct,423,14MAY2019:17:30:00,76.9,13.54,70.6,71.2,72.2,73.2,71.2,30,36,26,0.790,39.4,43.5,35.4,14.75,11.5,220,12,17.6,0.00487,0.00667,59.8,56.0,16,581,0,82.6,15.11,0.00,0.00
15min,AgWx,beryljct,423,14MAY2019:17:45:00,75.8,13.57,72.2,71.5,71.3,72.0,70.5,29,33,26,0.816,37.7,40.4,34.6,10.26,11.5,204,13,17.6,0.00360,0.00533,60.0,56.1,16,369,0,76.6,15.11,0.00,0.00
15min,AgWx,beryljct,423,14MAY2019:18:00:00,75.0,13.57,72.1,71.7,71.5,72.1,71.0,29,33,27,0.870,38.0,40.9,36.2,8.88,12.0,204,9.4,17.1,0.00391,0.00570,60.2,56.3,16,416,0,77.1,15.11,0.00,0.00
15min,AgWx,beryljct,423,14MAY2019:18:15:00,74.9,13.5,69.0,70.0,71.9,72.7,69.8,30,34,27,0.776,39.1,42.6,37.0,10.43,10.6,203,11,16.9,0.00331,0.00491,60.4,56.4,16,337,0,77.4,15.11,0.00,0.00
15min,AgWx,beryljct,423,14MAY2019:18:30:00,73.7,13.64,70.4,70.7,69.8,70.8,68.9,31,34,28,0.730,37.9,39.5,36.2,11.29,11.3,211,10,17.1,0.00283,0.00441,60.5,56.5,16,263,0,72.6,15.12,0.00,0.00
15min,AgWx,beryljct,423,14MAY2019:18:45:00,73.2,13.63,71.3,70.9,70.4,71.6,69.4,31,36,28,0.837,38.2,41.7,36.2,10.22,9.9,222,13,14.2,0.00321,0.00469,60.6,56.6,16,349,0,74.8,15.11,0.00,0.00
15min,AgWx,beryljct,423,14MAY2019:19:00:00,73.1,13.39,69.2,69.9,70.6,71.1,69.9,31,35,28,0.787,38.6,41.4,36.0,10.59,10.1,207,11,16.6,0.00284,0.00432,60.7,56.8,16,283,0,74.2,15.11,0.00,0.00
15min,AgWx,beryljct,423,14MAY2019:19:15:00,72.5,13.24,68.1,69.8,69.5,70.0,68.9,31,34,29,0.782,37.6,39.3,36.1,5.524,9.5,212,9.4,12.3,0.00233,0.00371,60.7,56.8,16,214,0,71.0,15.12,0.00,0.00
15min,AgWx,beryljct,423,14MAY2019:19:30:00,72.2,13.19,68.8,69.2,69.7,70.6,69.1,31,34,26,0.772,38.0,40.1,34.3,7.717,8.6,206,9.1,17.5,0.00219,0.00346,60.7,56.9,16,213,0,71.0,15.12,0.00,0.00
15min,AgWx,beryljct,423,14MAY2019:19:45:00,71.6,13.13,68.7,69.4,69.1,69.8,68.3,31,35,28,0.686,36.8,39.6,34.9,8.99,8.8,203,9.9,13.7,0.00109,0.00141,60.7,57.0,16,134,0,68.8,15.12,0.00,0.00
15min,AgWx,beryljct,423,14MAY2019:20:00:00,70.5,13.14,66.5,67.0,67.8,69.4,67.0,32,34,28,0.752,37.1,38.5,35.1,6.072,8.0,205,9.2,12.7,0.00088,0.00116,60.7,57.1,16,83,0,65.7,15.12,0.00,0.00
15min,AgWx,beryljct,423,14MAY2019:20:15:00,68.9,13.14,62.9,62.6,64.7,67.0,62.6,40,45,34,0.868,39.6,41.1,37.4,4.121,4.9,217,8.5,6.6,0.00047,0.00067,60.6,57.2,16,60,0,61.5,15.12,0.00,0.00
15min,AgWx,beryljct,423,14MAY2019:20:30:00,66.8,13.12,59.2,60.2,63.3,64.7,60.2,41,50,36,0.863,39.0,41.4,37.2,4.406,4.6,216,5.8,5.6,0.00032,0.00048,60.5,57.3,16,19,0,59.0,15.12,0.00,0.00
15min,AgWx,beryljct,423,14MAY2019:20:45:00,64.2,13.1,61.5,60.5,59.3,61.1,57.5,49,56,42,0.751,39.9,41.8,37.2,3.88,4.0,212,3.8,4.9,0.00015,0.00025,60.5,57.3,16,4,0,54.2,15.13,0.01,0.00
15min,AgWx,beryljct,423,14MAY2019:21:00:00,61.8,13.07,60.6,60.6,58.6,60.7,56.3,48,59,41,0.737,38.9,42.2,36.7,5.108,4.1,219,5.9,5.3,0.00015,0.00025,60.4,57.4,15,0,0,53.2,15.13,0.00,0.00
15min,AgWx,beryljct,423,14MAY2019:21:15:00,60.1,13.06,58.3,58.8,58.5,60.6,56.5,46,53,41,0.759,38.0,39.5,36.9,4.516,4.5,223,4.9,5.6,0.00020,0.00030,60.2,57.4,16,0,0,53.3,15.13,0.00,0.00
15min,AgWx,beryljct,423,14MAY2019:21:30:00,58.8,13.06,57.3,56.9,58.2,60.5,56.2,46,52,39,0.777,37.5,39.0,35.4,3.398,3.6,215,3.9,4.6,0.00011,0.00020,60.1,57.5,16,0,0,52.4,15.13,0.00,0.00
15min,AgWx,beryljct,423,14MAY2019:21:45:00,57.7,13.05,49.3,51.5,56.0,57.7,51.5,52,65,46,0.842,38.4,40.1,37.3,4.669,3.4,200,33,5.9,0.00007,0.00013,60.0,57.5,16,0,0,49.8,15.13,0.00,0.00
15min,AgWx,beryljct,423,14MAY2019:22:00:00,56.0,13.04,56.0,55.3,51.2,55.3,48.8,64,73,49,0.735,39.4,40.6,36.6,5.48,5.3,159,14,6.5,0.00009,0.00014,59.8,57.6,16,0,0,45.4,15.14,0.01,0.00
15min,AgWx,beryljct,423,14MAY2019:22:15:00,55.1,13.03,51.6,52.2,54.2,56.2,52.1,54,61,47,0.800,37.7,39.1,36.2,4.362,4.7,189,9.8,6.4,0.00014,0.00022,59.7,57.6,15,0,0,48.4,15.14,0.00,0.00
15min,AgWx,beryljct,423,14MAY2019:22:30:00,54.2,13.02,52.8,52.5,52.8,53.6,51.9,58,61,55,0.788,38.5,38.9,38.1,4.319,4.5,196,3.6,5.3,0.00010,0.00016,59.5,57.6,16,0,0,46.6,15.14,0.00,0.00
15min,AgWx,beryljct,423,14MAY2019:22:45:00,53.5,13,54.6,54.1,52.9,54.3,51.7,58,62,53,0.770,38.3,38.9,37.6,3.201,3.7,194,4.7,4.6,0.00004,0.00009,59.3,57.7,15,0,0,46.2,15.14,0.00,0.00
15min,AgWx,beryljct,423,14MAY2019:23:00:00,52.9,13,50.6,51.0,52.4,54.7,50.1,58,65,51,0.788,38.0,38.9,36.6,5.437,4.7,163,14,6.0,0.00011,0.00017,59.2,57.7,15,0,0,46.4,15.14,0.00,0.00
15min,AgWx,beryljct,423,14MAY2019:23:15:00,52.3,13,48.4,50.7,52.1,53.5,50.7,57,62,52,0.781,37.4,38.4,36.6,3.201,4.3,175,5.6,6.2,0.00009,0.00015,59.0,57.7,16,0,0,46.0,15.14,0.00,0.00
15min,AgWx,beryljct,423,14MAY2019:23:30:00,51.8,12.99,56.5,55.6,52.9,55.6,49.8,55,65,46,0.700,36.9,38.5,35.4,4.911,4.1,182,2.4,4.9,0.00009,0.00015,58.8,57.7,15,0,0,46.4,15.14,0.01,0.00
15min,AgWx,beryljct,423,14MAY2019:23:45:00,51.7,12.98,51.0,51.2,53.8,57.1,50.2,52,62,43,0.755,36.4,38.2,34.5,4.056,4.1,180,3.2,4.9,0.00012,0.00019,58.6,57.7,15,0,0,48.0,15.14,0.00,0.00
15min,AgWx,beryljct,423,15MAY2019:00:00:00,51.2,12.97,52.9,53.2,51.8,54.2,49.7,57,62,49,0.719,36.8,37.7,35.3,4.121,3.8,175,7.5,4.8,0.00006,0.00011,58.4,57.7,15,0,0,45.6,15.14,0.00,0.00
15min,AgWx,beryljct,423,15MAY2019:00:15:00,50.9,12.96,52.0,50.3,52.9,55.5,49.5,53,64,45,0.755,36.1,38.0,34.7,4.384,4.1,178,2.6,4.8,0.00010,0.00017,58.2,57.6,16,0,0,46.8,15.15,0.00,0.00
15min,AgWx,beryljct,423,15MAY2019:00:30:00,50.3,12.95,47.4,47.5,48.6,52.1,46.9,66,72,54,0.777,37.6,38.5,36.0,3.595,3.8,182,1.6,4.6,0.00000,0.00003,58.1,57.6,15,0,0,42.7,15.14,0.00,0.00
15min,AgWx,bigpiney,439,14MAY2019:00:00:00,52.4,12.76,44.8,45.9,47.8,48.9,45.9,68,74,63,0.775,37.6,38.9,36.6,6.007,2.7,344,84,6.4,0.00011,0.00017,46.8,38.7,55,0,0,0.0,2.04,0.00,0.00
15min,AgWx,bigpiney,439,14MAY2019:00:15:00,51.6,12.75,46.4,47.2,47.0,48.3,45.0,69,77,63,0.735,37.2,38.1,36.3,1.535,2.3,349,60,5.9,0.00010,0.00014,46.7,38.8,55,0,0,0.0,2.04,0.00,0.00
15min,AgWx,bigpiney,439,14MAY2019:00:30:00,50.9,12.74,46.4,45.4,46.7,47.4,45.3,69,76,66,0.783,37.0,38.4,36.5,1.841,1.3,269,34,2.9,0.00004,0.00007,46.6,38.8,55,0,0,0.0,2.04,0.00,0.00
15min,AgWx,bigpiney,439,14MAY2019:00:45:00,50.1,12.73,46.7,44.9,44.3,46.2,43.3,77,79,72,0.745,37.4,38.3,36.9,2.653,2.8,223,13,4.5,0.00007,0.00011,46.5,38.9,55,0,0,0.0,2.04,0.00,0.00
15min,AgWx,bigpiney,439,14MAY2019:01:00:00,49.2,12.71,46.4,46.3,46.4,47.2,45.0,68,74,65,0.711,36.3,37.3,35.8,2.609,3.1,296,20,4.3,0.00013,0.00018,46.4,38.9,55,0,0,0.0,2.04,0.00,0.00
15min,AgWx,bigpiney,439,14MAY2019:01:15:00,48.4,12.71,45.8,46.0,46.3,46.6,46.0,66,67,66,0.702,35.7,35.9,35.5,3.354,3.0,302,13,4.3,0.00013,0.00019,46.2,38.9,55,0,0,0.0,2.04,0.00,0.00
15min,AgWx,bigpiney,439,14MAY2019:01:30:00,47.7,12.7,39.3,40.1,43.5,45.9,40.1,72,79,67,0.665,35.0,35.6,34.0,4.757,3.2,271,64,5.5,0.00011,0.00015,46.1,38.8,55,0,0,0.0,2.04,0.00,0.00
15min,AgWx,bigpiney,439,14MAY2019:01:45:00,46.9,12.7,40.7,40.6,40.4,41.0,39.5,82,83,79,0.698,35.3,36.0,34.0,4.823,5.0,230,7.4,6.4,0.00008,0.00011,46.0,38.9,55,0,0,0.0,2.04,0.00,0.00
15min,AgWx,bigpiney,439,14MAY2019:02:00:00,46.0,12.68,40.1,39.9,40.4,41.1,39.6,81,83,80,0.676,35.1,35.6,34.3,2.609,3.4,225,8.5,4.9,0.00006,0.00008,45.9,38.9,55,0,0,0.0,2.04,0.00,0.00
15min,AgWx,bigpiney,439,14MAY2019:02:15:00,45.3,12.68,40.9,40.2,40.5,41.7,39.5,80,84,77,0.675,34.9,36.0,34.2,1.798,1.9,287,33,3.4,0.00003,0.00005,45.8,38.9,55,0,0,0.0,2.04,0.00,0.00
15min,AgWx,bigpiney,439,14MAY2019:02:30:00,44.6,12.67,39.4,39.0,39.2,40.3,38.7,84,87,79,0.666,34.7,35.3,34.1,1.82,2.0,265,14,2.4,0.00002,0.00003,45.7,38.9,55,0,0,0.0,2.04,0.00,0.00
15min,AgWx,bigpiney,439,14MAY2019:02:45:00,44.0,12.65,39.4,38.5,38.8,39.5,38.2,82,86,79,0.663,33.8,34.7,33.0,2.433,2.7,266,19,3.3,0.00004,0.00006,45.5,38.9,55,0,0,0.0,2.04,0.00,0.00
15min,AgWx,bigpiney,439,14MAY2019:03:00:00,43.4,12.65,41.4,39.8,38.6,39.8,38.0,83,85,81,0.685,34.0,34.8,33.2,2.981,2.6,266,27,4.8,0.00003,0.00005,45.4,38.9,55,0,0,0.0,2.04,0.00,0.00
15min,AgWx,bigpiney,439,14MAY2019:03:15:00,42.9,12.65,38.0,38.3,38.5,40.1,37.5,83,86,79,0.650,33.8,34.9,33.1,2.521,2.5,222,17,3.5,0.00003,0.00005,45.3,38.9,55,0,0,0.0,2.04,0.00,0.00
15min,AgWx,bigpiney,439,14MAY2019:03:30:00,42.5,12.63,38.9,38.4,37.4,38.4,36.5,86,88,83,0.661,33.5,34.4,33.0,2.806,4.5,216,12,6.0,0.00005,0.00007,45.2,38.9,55,0,0,0.0,2.04,0.00,0.00
15min,AgWx,bigpiney,439,14MAY2019:03:45:00,42.2,12.63,37.8,38.0,38.9,39.4,38.0,83,85,80,0.647,34.0,34.5,33.4,0,2.7,260,24,4.3,0.00004,0.00006,45.1,38.8,55,0,0,0.0,2.04,0.00,0.00
15min,AgWx,bigpiney,439,14MAY2019:04:00:00,42.1,12.62,36.6,36.4,37.2,37.9,36.4,86,88,83,0.637,33.4,34.2,32.5,4.757,2.4,208,12,6.0,0.00002,0.00003,44.9,38.9,55,0,0,0.0,2.04,0.00,0.00
15min,AgWx,bigpiney,439,14MAY2019:04:15:00,41.9,12.61,36.1,36.2,36.7,37.2,36.2,88,89,87,0.630,33.4,34.2,32.8,3.551,3.7,206,15,5.6,0.00003,0.00004,44.8,38.9,55,0,0,0.0,2.04,0.00,0.00
15min,AgWx,bigpiney,439,14MAY2019:04:30:00,41.7,12.6,37.0,36.6,36.5,36.9,36.1,89,89,87,0.650,33.5,34.0,32.7,4.998,4.1,213,11,6.6,0.00003,0.00004,44.7,38.9,55,0,0,0.0,2.04,0.00,0.00
15min,AgWx,bigpiney,439,14MAY2019:04:45:00,41.5,12.59,38.5,38.0,37.4,38.0,36.6,87,89,86,0.667,33.9,34.2,33.6,3.508,4.1,216,9.7,6.0,0.00004,0.00005,44.6,38.9,55,0,0,0.0,2.04,0.00,0.00
15min,AgWx,bigpiney,439,14MAY2019:05:00:00,41.5,12.58,39.0,38.7,38.6,39.0,38.0,85,86,84,0.669,34.5,35.1,34.2,3.398,3.2,232,8.1,4.2,0.00004,0.00006,44.5,38.8,55,0,0,0.0,2.04,0.00,0.00
15min,AgWx,bigpiney,439,14MAY2019:05:15:00,41.7,12.57,38.2,38.8,39.0,39.2,38.7,84,85,83,0.677,34.5,34.8,34.3,2.74,2.6,234,35,4.3,0.00003,0.00005,44.3,38.9,55,0,0,0.0,2.04,0.00,0.00
15min,AgWx,bigpiney,439,14MAY2019:05:30:00,41.8,12.56,37.5,37.7,38.8,39.5,37.7,84,87,83,0.669,34.5,35.2,34.1,2.236,1.9,19,21,3.7,0.00002,0.00003,44.2,38.8,55,0,0,0.0,2.04,0.00,0.00
15min,AgWx,bigpiney,439,14MAY2019:05:45:00,41.9,12.55,37.1,36.7,37.0,37.7,36.6,89,90,87,0.660,34.1,34.6,33.8,1.03,2.2,15,11,3.8,0.00001,0.00002,44.1,38.8,55,0,0,0.0,2.04,0.00,0.00
15min,AgWx,bigpiney,439,14MAY2019:06:00:00,41.8,12.54,37.2,36.8,36.8,37.1,36.6,89,90,88,0.664,33.8,34.1,33.6,2.587,2.3,320,26,3.8,0.00001,0.00002,44.0,38.8,55,2,0,0.0,2.04,0.00,0.00
15min,AgWx,bigpiney,439,14MAY2019:06:15:00,41.5,12.55,38.4,37.9,37.5,37.9,36.8,88,90,87,0.672,34.2,34.5,33.9,1.776,2.1,310,39,3.7,-0.00034,-0.00033,43.9,38.8,55,13,0,0.0,2.04,0.00,0.00
15min,AgWx,bigpiney,439,14MAY2019:06:30:00,41.4,12.56,37.3,37.7,38.3,38.9,37.7,86,88,84,0.676,34.5,34.8,34.2,6.116,2.5,20,72,6.1,-0.00024,-0.00021,43.7,38.8,55,31,0,0.0,2.04,0.00,0.00
15min,AgWx,bigpiney,439,14MAY2019:06:45:00,41.4,12.59,38.0,37.3,37.0,37.7,36.7,90,91,88,0.681,34.3,34.8,33.6,2.324,3.0,233,49,6.9,0.00001,0.00005,43.6,38.7,55,37,0,0.0,2.04,0.00,0.00